Regional Weather Roundup
Issued by NWS

Home | Current Version | Previous Version | Graphics & Text | Print | Product List | Glossary On
Versions: 1 2 3 4 5 6 7 8 9 10 11 12 13 14 15 16 17 18 19 20 21 22 23 24 25 26 27 28 29 30 31 32 33 34 35 36 37 38 39 40 41 42 43 44 45 46 47 48 49 50
000
ASUS43 KBIS 281502
RWRND

NORTH DAKOTA REGIONAL WEATHER ROUNDUP
NATIONAL WEATHER SERVICE BISMARCK ND
1000 AM CDT SUN AUG 28 2016

NOTE: "FAIR" INDICATES FEW OR NO CLOUDS BELOW 12,000 FEET WITH NO
SIGNIFICANT WEATHER AND/OR OBSTRUCTIONS TO VISIBILITY.


NDZ001>003-009>011-017-281600-
NORTHWEST NORTH DAKOTA

CITY           SKY/WX    TMP DP  RH WIND       PRES   REMARKS
WILLISTON      MOSUNNY   70  54  56 S7        29.86R
MINOT          SUNNY     76  59  55 S7        29.87S
MINOT AFB      SUNNY     74  59  58 SE9       29.86S
$$

NDZ018>021-031>035-040>046-281600-
SOUTHWEST NORTH DAKOTA

CITY           SKY/WX    TMP DP  RH WIND       PRES   REMARKS
BISMARCK       SUNNY     70  63  78 SE9       29.91S
DICKINSON      SUNNY     70  55  59 SW7       29.90R
GARRISON         N/A     70  60  70 S7        29.91R
HETTINGER ARPT SUNNY     72  58  61 W5        29.94R
$$

NDZ004>008-012>016-024-026-027-054-281600-
NORTHEAST NORTH DAKOTA

CITY           SKY/WX    TMP DP  RH WIND       PRES   REMARKS
GRAND FORKS    MOSUNNY   69  61  75 S14       29.99S
GRND FRKS AFB  SUNNY     68  62  83 S10       30.00R
DEVILS LAKE    SUNNY     71  65  81 SE17      29.95S
$$

NDZ022-023-025-028>030-036>039-047>053-281600-
SOUTHEAST NORTH DAKOTA

CITY           SKY/WX    TMP DP  RH WIND       PRES   REMARKS
FARGO          MOSUNNY   71  62  73 SE13      30.02R
JAMESTOWN      SUNNY     69  64  84 SE12      29.95S
$$





USA.gov is the U.S. government's official web portal to all federal, state and local government web resources and services.